Location: Forst
(46.9333°N, 15.4333°E)
Time: 06:29:22
(UTC+00:00)

YAOGAN 1 - Pass Details

Date: 01 December 2020
Orbit: 618 x 620 km, 97.9° (Epoch: 18 January)

Event Time Altitude Azimuth Distance (km) Brightness Sun altitude
Exits shadow 17:09:20 42° 51° (NE) 889 2.9 -19.5°
Drops below altitude 10° 17:13:00 10° 359° (N) 2,000 5.1 -20.1°
Sets 17:15:16 0° 353° (N) 2,911 6.0 -20.5°
